User: anonymous   Login
Location: ????? ????
(37.9717°N, 23.4051°E)
Time: 09:44:09
(UTC+00:00)
Language:

Cosmos 1825 - Orbit

View from above orbital plane
View from above orbital plane
View from above satellite
View from above satellite

Ground track
Ground track

The orbit data is extracted from the following two-line orbital elements,

1 17566U 87024A   24169.61769326  .00016450  00000-0  38902-3 0  9999
2 17566  82.4967 258.2184 0002365 220.6630 139.4440 15.41682531 42746
Epoch (UTC): 17 June 2024 14:49:28
Eccentricity: 0.0002365
inclination: 82.4967°
perigee height: 439 km
apogee height: 443 km
right ascension of ascending node: 258.2184°
argument of perigee: 220.6630°
revolutions per day: 15.41682531
mean anomaly at epoch: 139.4440°
orbit number at epoch: 4274

The dashed part of the orbit path shows where the satellite is in the earth's shadow,  

DLR